Weather History for Cedar Rapids, IA

Change the Weather History Date:

Wednesday, November 21, 2012

  Actual Average Record
Temperature  
Mean Temperature 48 °F 34 °F  
Max Temperature 64 °F 43 °F 67 °F (1990)
Min Temperature 31 °F 25 °F 0 °F (1937)
Degree Days  
Heating Degree Days 17 31  
Month to date heating degree days 508 533  
Since 1 July heating degree days 1276 1143  
Cooling Degree Days 0 0  
Month to date cooling degree days 0 0  
Year to date cooling degree days 1052 748  
Moisture  
Dew Point 40 °F    
Average Humidity 72    
Maximum Humidity 100    
Minimum Humidity 44    
Precipitation  
Precipitation 0.00 in 0.06 in 0.50 in (1961)
Month to date precipitation 1.92 1.50  
Year to date precipitation 23.02 32.58  
Sea Level Pressure  
Sea Level Pressure 30.11 in    
Wind  
Wind Speed 10 mph (South)    
Max Wind Speed 20 mph    
Max Gust Speed 23 mph    
Visibility 5 miles    
Events Fog    
T = Trace of Precipitation, MM = Missing Value Source: NWS Daily Summary

Daily Weather History Graph

Daily Weather History Graph

Search for Another Location

Airport:

Trip Planner

Search our weather history database for the weather conditions in past years. The results will help you decide how hot, cold, wet, or windy it might be!

Date:

Astronomy

Nov. 21, 2012 Rise Set
Actual Time 7:04 AM CST 4:41 PM CST
Civil Twilight 6:33 AM CST 5:11 PM CST
Nautical Twilight 5:59 AM CST 5:45 PM CST
Astronomical Twilight 5:26 AM CST 6:18 PM CST
Moon 1:03 PM CST 12:17 AM CST
Length of Visible Light 10h 37m
Length of Day
9h 36m
First Quarter, 62% of the Moon is Illuminated
Nov 21
First Quarter
Nov 28
Full
Dec 6
Last Quarter
Dec 13
New
Dec 19
First Quarter

Hourly Weather History & Observations

Time (CST) Temp. Windchill Dew Point Humidity Pressure Visibility Wind Dir Wind Speed Gust Speed Precip Events Conditions
12:52 AM 35.1 °F 30.1 °F 35.1 °F 100% 30.19 in 0.2 mi South 5.8 mph - N/A Fog Fog
1:52 AM 34.0 °F 29.8 °F 34.0 °F 100% 30.19 in 0.2 mi South 4.6 mph - N/A Fog Fog
2:52 AM 33.1 °F 30.0 °F 33.1 °F 100% 30.18 in 0.2 mi SSE 3.5 mph - N/A Fog Fog
3:52 AM 33.1 °F 27.7 °F 33.1 °F 100% 30.19 in 0.2 mi SSE 5.8 mph - 0.01 in Fog Fog
4:52 AM 32.0 °F 27.5 °F - N/A% 30.19 in 0.2 mi SSE 4.6 mph - N/A Fog Fog
5:52 AM 30.9 °F 24.3 °F 30.9 °F 100% 30.19 in 0.2 mi South 6.9 mph - N/A Fog Light Freezing Fog
6:52 AM 32.0 °F 24.8 °F 32.0 °F 100% 30.19 in 0.2 mi SSE 8.1 mph - N/A Fog Fog
7:52 AM 33.1 °F 26.9 °F 33.1 °F 100% 30.19 in 0.2 mi South 6.9 mph - N/A Fog Fog
8:39 AM 35.6 °F 28.6 °F 35.6 °F 100% 30.16 in 0.2 mi South 9.2 mph - N/A Fog Fog
8:52 AM 35.1 °F 27.9 °F 35.1 °F 100% 30.19 in 0.2 mi South 9.2 mph - N/A Fog Fog
9:24 AM 37.4 °F 30.3 °F 37.4 °F 100% 30.16 in 0.5 mi South 10.4 mph - N/A Fog Fog
9:43 AM 39.2 °F 31.2 °F 39.2 °F 100% 30.16 in 1.0 mi South 13.8 mph - N/A   Overcast
9:52 AM 39.2 °F 32.0 °F 39.2 °F 100% 30.16 in 1.8 mi South 11.5 mph - N/A   Mostly Cloudy
10:10 AM 42.8 °F 37.0 °F 42.8 °F 100% 30.15 in 3.0 mi South 10.4 mph - N/A   Scattered Clouds
10:52 AM 48.9 °F - 46.9 °F 93% 30.15 in 6.0 mi South 9.2 mph - N/A   Clear
11:52 AM 55.0 °F - 46.9 °F 74% 30.12 in 8.0 mi South 13.8 mph - N/A   Clear
12:52 PM 60.1 °F - 45.0 °F 57% 30.09 in 10.0 mi South 13.8 mph - N/A   Clear
1:52 PM 63.0 °F - 44.1 °F 50% 30.06 in 10.0 mi South 17.3 mph - N/A   Clear
2:52 PM 64.0 °F - 43.0 °F 46% 30.04 in 10.0 mi South 17.3 mph - N/A   Clear
3:52 PM 61.0 °F - 42.1 °F 50% 30.03 in 10.0 mi South 12.7 mph 23.0 mph N/A   Clear
4:52 PM 55.9 °F - 41.0 °F 57% 30.03 in 10.0 mi South 9.2 mph - N/A   Clear
5:52 PM 53.1 °F - 41.0 °F 64% 30.02 in 10.0 mi South 8.1 mph - N/A   Clear
6:52 PM 50.0 °F - 46.0 °F 86% 30.02 in 9.0 mi South 11.5 mph - N/A   Clear
7:52 PM 48.9 °F - 46.0 °F 90% 30.01 in 7.0 mi South 9.2 mph - N/A   Clear
8:52 PM 48.0 °F - 45.0 °F 89% 30.02 in 8.0 mi South 11.5 mph - N/A   Clear
9:52 PM 46.9 °F - 44.1 °F 90% 30.02 in 9.0 mi South 9.2 mph - N/A   Clear
10:52 PM 46.9 °F - 43.0 °F 86% 29.99 in 10.0 mi South 11.5 mph - N/A   Clear
11:52 PM 46.0 °F 40.2 °F 42.1 °F 86% 29.97 in 10.0 mi South 12.7 mph - N/A   Clear